Location: Unspecified
(35.0203°N, 0.0000°E)
Time: 04:47:25
(UTC+00:00)

Cosmos 1420 Rocket - Visible Passes

Search period start: 04 April 2026 00:00
Search period end: 14 April 2026 00:00
Orbit: 750 x 776 km, 74.0° (Epoch: 28 March)

Date Brightness Start Highest point End Pass type
(mag) Time Alt. Az. Time Alt. Az. Time Alt. Az.
4 Apr 6.4 02:38:37 14° NNW 02:38:37 14° NNW 02:39:27 10° N visible
5 Apr 6.7 02:00:42 13° N 02:00:42 13° N 02:01:20 10° N visible
6 Apr 7.0 01:22:45 11° NNE 01:22:45 11° NNE 01:22:52 10° NNE visible
7 Apr 6.7 02:24:56 10° NNW 02:24:56 10° NNW 02:24:58 10° NNW visible
8 Apr 6.8 01:46:57 11° N 01:46:57 11° N 01:47:11 10° N visible
9 Apr 7.0 01:08:56 10° N 01:08:56 10° N 01:08:58 10° N visible
